owner,sensor,date,latitude,longitude,vertical_datum,sea_water_practical_salinity,qcFlag 
ENP,ioos.station.NOAA.NDBC:WWEF1:1,2016-09-01T01:00:00Z,25.2320,-80.9380,1.5,14.86,1111122 
ENP,ioos.station.NOAA.NDBC:WWEF1:1,2016-09-01T02:00:00Z,25.2320,-80.9380,1.5,14.86,1111122 
ENP,ioos.station.NOAA.NDBC:WWEF1:1,2016-09-01T06:00:00Z,25.2320,-80.9380,1.5,14.93,1111122 
ENP,ioos.station.NOAA.NDBC:WWEF1:1,2016-09-01T07:00:00Z,25.2320,-80.9380,1.5,15.06,1111122 
ENP,ioos.station.NOAA.NDBC:WWEF1:1,2016-09-01T08:00:00Z,25.2320,-80.9380,1.5,15.2,1111122 
ENP,ioos.station.NOAA.NDBC:WWEF1:1,2016-09-01T10:00:00Z,25.2320,-80.9380,1.5,15.33,1111122 
ENP,ioos.station.NOAA.NDBC:WWEF1:1,2016-09-01T11:00:00Z,25.2320,-80.9380,1.5,15.26,1111122 
ENP,ioos.station.NOAA.NDBC:WWEF1:1,2016-09-01T12:00:00Z,25.2320,-80.9380,1.5,15.26,1111122 
ENP,ioos.station.NOAA.NDBC:WWEF1:1,2016-09-01T19:00:00Z,25.2320,-80.9380,1.5,15.13,1111122 
ENP,ioos.station.NOAA.NDBC:WWEF1:1,2016-09-02T11:00:00Z,25.2320,-80.9380,1.5,14.66,1111122 
ENP,ioos.station.NOAA.NDBC:WWEF1:1,2016-09-02T12:00:00Z,25.2320,-80.9380,1.5,14.66,1111122 
ENP,ioos.station.NOAA.NDBC:WWEF1:1,2016-09-02T13:00:00Z,25.2320,-80.9380,1.5,14.66,1111122 
ENP,ioos.station.NOAA.NDBC:WWEF1:1,2016-09-02T14:00:00Z,25.2320,-80.9380,1.5,14.73,1111122 
ENP,ioos.station.NOAA.NDBC:WWEF1:1,2016-09-02T15:00:00Z,25.2320,-80.9380,1.5,14.73,1111122 
ENP,ioos.station.NOAA.NDBC:WWEF1:1,2016-09-02T17:00:00Z,25.2320,-80.9380,1.5,14.53,1111122 
ENP,ioos.station.NOAA.NDBC:WWEF1:1,2016-09-02T18:00:00Z,25.2320,-80.9380,1.5,14.53,1111122 
ENP,ioos.station.NOAA.NDBC:WWEF1:1,2016-09-02T19:00:00Z,25.2320,-80.9380,1.5,14.6,1111122 
ENP,ioos.station.NOAA.NDBC:WWEF1:1,2016-09-02T20:00:00Z,25.2320,-80.9380,1.5,14.66,1111122 
ENP,ioos.station.NOAA.NDBC:WWEF1:1,2016-09-02T21:00:00Z,25.2320,-80.9380,1.5,14.66,1111122 
ENP,ioos.station.NOAA.NDBC:WWEF1:1,2016-09-02T22:00:00Z,25.2320,-80.9380,1.5,14.73,1111122 
ENP,ioos.station.NOAA.NDBC:WWEF1:1,2016-09-02T23:00:00Z,25.2320,-80.9380,1.5,14.8,1111122 
ENP,ioos.station.NOAA.NDBC:WWEF1:1,2016-09-03T00:00:00Z,25.2320,-80.9380,1.5,14.8,1111122 
ENP,ioos.station.NOAA.NDBC:WWEF1:1,2016-09-03T01:00:00Z,25.2320,-80.9380,1.5,14.8,1111122 
ENP,ioos.station.NOAA.NDBC:WWEF1:1,2016-09-03T03:00:00Z,25.2320,-80.9380,1.5,14.86,1111122 
ENP,ioos.station.NOAA.NDBC:WWEF1:1,2016-09-03T04:00:00Z,25.2320,-80.9380,1.5,14.86,1111122 
ENP,ioos.station.NOAA.NDBC:WWEF1:1,2016-09-03T06:00:00Z,25.2320,-80.9380,1.5,14.93,1111122 
ENP,ioos.station.NOAA.NDBC:WWEF1:1,2016-09-03T07:00:00Z,25.2320,-80.9380,1.5,15.0,1111122 
ENP,ioos.station.NOAA.NDBC:WWEF1:1,2016-09-03T08:00:00Z,25.2320,-80.9380,1.5,15.13,1111122 
ENP,ioos.station.NOAA.NDBC:WWEF1:1,2016-09-03T10:00:00Z,25.2320,-80.9380,1.5,15.33,1111122 
ENP,ioos.station.NOAA.NDBC:WWEF1:1,2016-09-03T11:00:00Z,25.2320,-80.9380,1.5,15.33,1111122 
ENP,ioos.station.NOAA.NDBC:WWEF1:1,2016-09-03T12:00:00Z,25.2320,-80.9380,1.5,15.26,1111122 
ENP,ioos.station.NOAA.NDBC:WWEF1:1,2016-09-03T13:00:00Z,25.2320,-80.9380,1.5,15.0,1111122 
ENP,ioos.station.NOAA.NDBC:WWEF1:1,2016-09-03T14:00:00Z,25.2320,-80.9380,1.5,14.8,1111122 
ENP,ioos.station.NOAA.NDBC:WWEF1:1,2016-09-03T15:00:00Z,25.2320,-80.9380,1.5,14.8,1111122 
ENP,ioos.station.NOAA.NDBC:WWEF1:1,2016-09-03T16:00:00Z,25.2320,-80.9380,1.5,14.73,1111122 
ENP,ioos.station.NOAA.NDBC:WWEF1:1,2016-09-03T17:00:00Z,25.2320,-80.9380,1.5,14.8,1111122 
ENP,ioos.station.NOAA.NDBC:WWEF1:1,2016-09-03T18:00:00Z,25.2320,-80.9380,1.5,14.73,1111122 
ENP,ioos.station.NOAA.NDBC:WWEF1:1,2016-09-03T19:00:00Z,25.2320,-80.9380,1.5,14.73,1111122 
ENP,ioos.station.NOAA.NDBC:WWEF1:1,2016-09-03T20:00:00Z,25.2320,-80.9380,1.5,14.73,1111122 
ENP,ioos.station.NOAA.NDBC:WWEF1:1,2016-09-03T21:00:00Z,25.2320,-80.9380,1.5,14.73,1111122 
ENP,ioos.station.NOAA.NDBC:WWEF1:1,2016-09-03T22:00:00Z,25.2320,-80.9380,1.5,14.8,1111122 
ENP,ioos.station.NOAA.NDBC:WWEF1:1,2016-09-03T23:00:00Z,25.2320,-80.9380,1.5,14.8,1111122 
ENP,ioos.station.NOAA.NDBC:WWEF1:1,2016-09-04T00:00:00Z,25.2320,-80.9380,1.5,14.8,1111122 
ENP,ioos.station.NOAA.NDBC:WWEF1:1,2016-09-04T01:00:00Z,25.2320,-80.9380,1.5,14.8,1111122 
ENP,ioos.station.NOAA.NDBC:WWEF1:1,2016-09-04T03:00:00Z,25.2320,-80.9380,1.5,14.8,1111122 
ENP,ioos.station.NOAA.NDBC:WWEF1:1,2016-09-04T04:00:00Z,25.2320,-80.9380,1.5,14.8,1111122 
ENP,ioos.station.NOAA.NDBC:WWEF1:1,2016-09-04T06:00:00Z,25.2320,-80.9380,1.5,14.8,1111122 
ENP,ioos.station.NOAA.NDBC:WWEF1:1,2016-09-04T07:00:00Z,25.2320,-80.9380,1.5,14.86,1111122 
ENP,ioos.station.NOAA.NDBC:WWEF1:1,2016-09-04T08:00:00Z,25.2320,-80.9380,1.5,14.86,1111122 
ENP,ioos.station.NOAA.NDBC:WWEF1:1,2016-09-04T09:00:00Z,25.2320,-80.9380,1.5,14.93,1111122 
ENP,ioos.station.NOAA.NDBC:WWEF1:1,2016-09-04T11:00:00Z,25.2320,-80.9380,1.5,14.93,1111122 
ENP,ioos.station.NOAA.NDBC:WWEF1:1,2016-09-04T12:00:00Z,25.2320,-80.9380,1.5,14.93,1111122 
ENP,ioos.station.NOAA.NDBC:WWEF1:1,2016-09-04T13:00:00Z,25.2320,-80.9380,1.5,14.93,1111122 
ENP,ioos.station.NOAA.NDBC:WWEF1:1,2016-09-04T14:00:00Z,25.2320,-80.9380,1.5,14.93,1111122 
ENP,ioos.station.NOAA.NDBC:WWEF1:1,2016-09-04T15:00:00Z,25.2320,-80.9380,1.5,14.93,1111122 
ENP,ioos.station.NOAA.NDBC:WWEF1:1,2016-09-04T16:00:00Z,25.2320,-80.9380,1.5,14.93,1111122 
ENP,ioos.station.NOAA.NDBC:WWEF1:1,2016-09-04T17:00:00Z,25.2320,-80.9380,1.5,15.0,1111122 
ENP,ioos.station.NOAA.NDBC:WWEF1:1,2016-09-04T18:00:00Z,25.2320,-80.9380,1.5,15.0,1111122 
ENP,ioos.station.NOAA.NDBC:WWEF1:1,2016-09-04T19:00:00Z,25.2320,-80.9380,1.5,14.93,1111122 
ENP,ioos.station.NOAA.NDBC:WWEF1:1,2016-09-04T20:00:00Z,25.2320,-80.9380,1.5,14.93,1111122 
ENP,ioos.station.NOAA.NDBC:WWEF1:1,2016-09-04T21:00:00Z,25.2320,-80.9380,1.5,14.93,1111122 
ENP,ioos.station.NOAA.NDBC:WWEF1:1,2016-09-04T22:00:00Z,25.2320,-80.9380,1.5,14.93,1111122 
ENP,ioos.station.NOAA.NDBC:WWEF1:1,2016-09-04T23:00:00Z,25.2320,-80.9380,1.5,14.86,1111122 
ENP,ioos.station.NOAA.NDBC:WWEF1:1,2016-09-05T00:00:00Z,25.2320,-80.9380,1.5,14.93,1111122 
ENP,ioos.station.NOAA.NDBC:WWEF1:1,2016-09-05T01:00:00Z,25.2320,-80.9380,1.5,14.86,1111122 
ENP,ioos.station.NOAA.NDBC:WWEF1:1,2016-09-05T03:00:00Z,25.2320,-80.9380,1.5,14.8,1111122 
ENP,ioos.station.NOAA.NDBC:WWEF1:1,2016-09-05T04:00:00Z,25.2320,-80.9380,1.5,14.73,1111122 
ENP,ioos.station.NOAA.NDBC:WWEF1:1,2016-09-05T06:00:00Z,25.2320,-80.9380,1.5,14.6,1111122 
ENP,ioos.station.NOAA.NDBC:WWEF1:1,2016-09-05T07:00:00Z,25.2320,-80.9380,1.5,14.66,1111122 
ENP,ioos.station.NOAA.NDBC:WWEF1:1,2016-09-05T08:00:00Z,25.2320,-80.9380,1.5,14.6,1111122 
ENP,ioos.station.NOAA.NDBC:WWEF1:1,2016-09-05T09:00:00Z,25.2320,-80.9380,1.5,14.6,1111122 
ENP,ioos.station.NOAA.NDBC:WWEF1:1,2016-09-05T10:00:00Z,25.2320,-80.9380,1.5,14.6,1111122 
ENP,ioos.station.NOAA.NDBC:WWEF1:1,2016-09-05T11:00:00Z,25.2320,-80.9380,1.5,14.6,1111122 
ENP,ioos.station.NOAA.NDBC:WWEF1:1,2016-09-05T12:00:00Z,25.2320,-80.9380,1.5,14.53,1111122 
ENP,ioos.station.NOAA.NDBC:WWEF1:1,2016-09-05T13:00:00Z,25.2320,-80.9380,1.5,14.6,1111122 
ENP,ioos.station.NOAA.NDBC:WWEF1:1,2016-09-05T14:00:00Z,25.2320,-80.9380,1.5,14.6,1111122 
ENP,ioos.station.NOAA.NDBC:WWEF1:1,2016-09-05T15:00:00Z,25.2320,-80.9380,1.5,14.6,1111122 
ENP,ioos.station.NOAA.NDBC:WWEF1:1,2016-09-05T16:00:00Z,25.2320,-80.9380,1.5,14.53,1111122 
ENP,ioos.station.NOAA.NDBC:WWEF1:1,2016-09-05T17:00:00Z,25.2320,-80.9380,1.5,14.46,1111122 
ENP,ioos.station.NOAA.NDBC:WWEF1:1,2016-09-05T18:00:00Z,25.2320,-80.9380,1.5,14.46,1111122 
ENP,ioos.station.NOAA.NDBC:WWEF1:1,2016-09-05T19:00:00Z,25.2320,-80.9380,1.5,14.4,1111122 
ENP,ioos.station.NOAA.NDBC:WWEF1:1,2016-09-05T20:00:00Z,25.2320,-80.9380,1.5,14.27,1111122 
ENP,ioos.station.NOAA.NDBC:WWEF1:1,2016-09-05T21:00:00Z,25.2320,-80.9380,1.5,14.2,1111122 
ENP,ioos.station.NOAA.NDBC:WWEF1:1,2016-09-05T22:00:00Z,25.2320,-80.9380,1.5,14.27,1111122 
ENP,ioos.station.NOAA.NDBC:WWEF1:1,2016-09-05T23:00:00Z,25.2320,-80.9380,1.5,14.27,1111122 
ENP,ioos.station.NOAA.NDBC:WWEF1:1,2016-09-06T00:00:00Z,25.2320,-80.9380,1.5,14.2,1111122 
ENP,ioos.station.NOAA.NDBC:WWEF1:1,2016-09-06T01:00:00Z,25.2320,-80.9380,1.5,14.2,1111122 
ENP,ioos.station.NOAA.NDBC:WWEF1:1,2016-09-06T03:00:00Z,25.2320,-80.9380,1.5,14.46,1111122 
ENP,ioos.station.NOAA.NDBC:WWEF1:1,2016-09-06T04:00:00Z,25.2320,-80.9380,1.5,14.66,1111122 
ENP,ioos.station.NOAA.NDBC:WWEF1:1,2016-09-06T06:00:00Z,25.2320,-80.9380,1.5,14.8,1111122 
ENP,ioos.station.NOAA.NDBC:WWEF1:1,2016-09-06T07:00:00Z,25.2320,-80.9380,1.5,14.8,1111122 
ENP,ioos.station.NOAA.NDBC:WWEF1:1,2016-09-06T08:00:00Z,25.2320,-80.9380,1.5,14.8,1111122 
ENP,ioos.station.NOAA.NDBC:WWEF1:1,2016-09-06T09:00:00Z,25.2320,-80.9380,1.5,14.8,1111122 
ENP,ioos.station.NOAA.NDBC:WWEF1:1,2016-09-06T10:00:00Z,25.2320,-80.9380,1.5,14.86,1111122 
ENP,ioos.station.NOAA.NDBC:WWEF1:1,2016-09-06T11:00:00Z,25.2320,-80.9380,1.5,14.86,1111122 
ENP,ioos.station.NOAA.NDBC:WWEF1:1,2016-09-06T12:00:00Z,25.2320,-80.9380,1.5,14.86,1111122 
ENP,ioos.station.NOAA.NDBC:WWEF1:1,2016-09-06T13:00:00Z,25.2320,-80.9380,1.5,14.86,1111122 
ENP,ioos.station.NOAA.NDBC:WWEF1:1,2016-09-06T14:00:00Z,25.2320,-80.9380,1.5,14.86,1111122 
ENP,ioos.station.NOAA.NDBC:WWEF1:1,2016-09-06T15:00:00Z,25.2320,-80.9380,1.5,14.93,1111122 
ENP,ioos.station.NOAA.NDBC:WWEF1:1,2016-09-06T16:00:00Z,25.2320,-80.9380,1.5,14.93,1111122 
ENP,ioos.station.NOAA.NDBC:WWEF1:1,2016-09-06T17:00:00Z,25.2320,-80.9380,1.5,14.93,1111122 
ENP,ioos.station.NOAA.NDBC:WWEF1:1,2016-09-06T18:00:00Z,25.2320,-80.9380,1.5,14.93,1111122 
ENP,ioos.station.NOAA.NDBC:WWEF1:1,2016-09-06T19:00:00Z,25.2320,-80.9380,1.5,14.6,1111122 
ENP,ioos.station.NOAA.NDBC:WWEF1:1,2016-09-06T20:00:00Z,25.2320,-80.9380,1.5,14.6,1111122 
ENP,ioos.station.NOAA.NDBC:WWEF1:1,2016-09-06T21:00:00Z,25.2320,-80.9380,1.5,14.66,1111122 
ENP,ioos.station.NOAA.NDBC:WWEF1:1,2016-09-06T22:00:00Z,25.2320,-80.9380,1.5,14.73,1111122 
ENP,ioos.station.NOAA.NDBC:WWEF1:1,2016-09-06T23:00:00Z,25.2320,-80.9380,1.5,14.8,1111122 
ENP,ioos.station.NOAA.NDBC:WWEF1:1,2016-09-07T00:00:00Z,25.2320,-80.9380,1.5,14.8,1111122 
ENP,ioos.station.NOAA.NDBC:WWEF1:1,2016-09-07T01:00:00Z,25.2320,-80.9380,1.5,14.86,1111122 
ENP,ioos.station.NOAA.NDBC:WWEF1:1,2016-09-07T03:00:00Z,25.2320,-80.9380,1.5,14.93,1111122 
ENP,ioos.station.NOAA.NDBC:WWEF1:1,2016-09-07T04:00:00Z,25.2320,-80.9380,1.5,14.86,1111122 
ENP,ioos.station.NOAA.NDBC:WWEF1:1,2016-09-07T06:00:00Z,25.2320,-80.9380,1.5,14.8,1111122 
ENP,ioos.station.NOAA.NDBC:WWEF1:1,2016-09-07T07:00:00Z,25.2320,-80.9380,1.5,14.86,1111122 
ENP,ioos.station.NOAA.NDBC:WWEF1:1,2016-09-07T08:00:00Z,25.2320,-80.9380,1.5,14.86,1111122 
ENP,ioos.station.NOAA.NDBC:WWEF1:1,2016-09-07T09:00:00Z,25.2320,-80.9380,1.5,14.86,1111122 
ENP,ioos.station.NOAA.NDBC:WWEF1:1,2016-09-07T10:00:00Z,25.2320,-80.9380,1.5,14.86,1111122 
ENP,ioos.station.NOAA.NDBC:WWEF1:1,2016-09-07T11:00:00Z,25.2320,-80.9380,1.5,14.86,1111122 
ENP,ioos.station.NOAA.NDBC:WWEF1:1,2016-09-07T12:00:00Z,25.2320,-80.9380,1.5,14.86,1111122 
ENP,ioos.station.NOAA.NDBC:WWEF1:1,2016-09-07T13:00:00Z,25.2320,-80.9380,1.5,14.8,1111122 
ENP,ioos.station.NOAA.NDBC:WWEF1:1,2016-09-07T14:00:00Z,25.2320,-80.9380,1.5,14.73,1111122 
ENP,ioos.station.NOAA.NDBC:WWEF1:1,2016-09-07T17:00:00Z,25.2320,-80.9380,1.5,14.66,1111122 
ENP,ioos.station.NOAA.NDBC:WWEF1:1,2016-09-07T18:00:00Z,25.2320,-80.9380,1.5,14.66,1111122 
ENP,ioos.station.NOAA.NDBC:WWEF1:1,2016-09-07T19:00:00Z,25.2320,-80.9380,1.5,14.66,1111122 
ENP,ioos.station.NOAA.NDBC:WWEF1:1,2016-09-07T20:00:00Z,25.2320,-80.9380,1.5,14.6,1111122 
ENP,ioos.station.NOAA.NDBC:WWEF1:1,2016-09-07T21:00:00Z,25.2320,-80.9380,1.5,14.53,1111122 
ENP,ioos.station.NOAA.NDBC:WWEF1:1,2016-09-07T22:00:00Z,25.2320,-80.9380,1.5,14.6,1111122 
ENP,ioos.station.NOAA.NDBC:WWEF1:1,2016-09-07T23:00:00Z,25.2320,-80.9380,1.5,14.6,1111122 
ENP,ioos.station.NOAA.NDBC:WWEF1:1,2016-09-08T00:00:00Z,25.2320,-80.9380,1.5,14.6,1111122 
ENP,ioos.station.NOAA.NDBC:WWEF1:1,2016-09-08T01:00:00Z,25.2320,-80.9380,1.5,14.6,1111122 
ENP,ioos.station.NOAA.NDBC:WWEF1:1,2016-09-08T03:00:00Z,25.2320,-80.9380,1.5,14.6,1111122 
ENP,ioos.station.NOAA.NDBC:WWEF1:1,2016-09-08T04:00:00Z,25.2320,-80.9380,1.5,14.6,1111122 
ENP,ioos.station.NOAA.NDBC:WWEF1:1,2016-09-08T06:00:00Z,25.2320,-80.9380,1.5,14.66,1111122 
ENP,ioos.station.NOAA.NDBC:WWEF1:1,2016-09-08T07:00:00Z,25.2320,-80.9380,1.5,14.66,1111122 
ENP,ioos.station.NOAA.NDBC:WWEF1:1,2016-09-08T08:00:00Z,25.2320,-80.9380,1.5,14.66,1111122 
ENP,ioos.station.NOAA.NDBC:WWEF1:1,2016-09-08T09:00:00Z,25.2320,-80.9380,1.5,14.66,1111122 
ENP,ioos.station.NOAA.NDBC:WWEF1:1,2016-09-08T10:00:00Z,25.2320,-80.9380,1.5,14.66,1111122 
ENP,ioos.station.NOAA.NDBC:WWEF1:1,2016-09-08T11:00:00Z,25.2320,-80.9380,1.5,14.66,1111122 
ENP,ioos.station.NOAA.NDBC:WWEF1:1,2016-09-08T12:00:00Z,25.2320,-80.9380,1.5,14.66,1111122 
ENP,ioos.station.NOAA.NDBC:WWEF1:1,2016-09-08T13:00:00Z,25.2320,-80.9380,1.5,14.66,1111122 
ENP,ioos.station.NOAA.NDBC:WWEF1:1,2016-09-08T14:00:00Z,25.2320,-80.9380,1.5,14.66,1111122 
ENP,ioos.station.NOAA.NDBC:WWEF1:1,2016-09-08T15:00:00Z,25.2320,-80.9380,1.5,14.66,1111122 
ENP,ioos.station.NOAA.NDBC:WWEF1:1,2016-09-08T16:00:00Z,25.2320,-80.9380,1.5,14.8,1111122 
ENP,ioos.station.NOAA.NDBC:WWEF1:1,2016-09-08T17:00:00Z,25.2320,-80.9380,1.5,14.73,1111122 
ENP,ioos.station.NOAA.NDBC:WWEF1:1,2016-09-08T18:00:00Z,25.2320,-80.9380,1.5,14.66,1111122 
ENP,ioos.station.NOAA.NDBC:WWEF1:1,2016-09-08T19:00:00Z,25.2320,-80.9380,1.5,14.66,1111122 
ENP,ioos.station.NOAA.NDBC:WWEF1:1,2016-09-08T20:00:00Z,25.2320,-80.9380,1.5,14.73,1111122 
ENP,ioos.station.NOAA.NDBC:WWEF1:1,2016-09-08T21:00:00Z,25.2320,-80.9380,1.5,14.73,1111122 
ENP,ioos.station.NOAA.NDBC:WWEF1:1,2016-09-08T22:00:00Z,25.2320,-80.9380,1.5,14.73,1111122 
ENP,ioos.station.NOAA.NDBC:WWEF1:1,2016-09-08T23:00:00Z,25.2320,-80.9380,1.5,14.66,1111122 
ENP,ioos.station.NOAA.NDBC:WWEF1:1,2016-09-09T00:00:00Z,25.2320,-80.9380,1.5,14.73,1111122 
ENP,ioos.station.NOAA.NDBC:WWEF1:1,2016-09-09T03:00:00Z,25.2320,-80.9380,1.5,14.46,1111122 
ENP,ioos.station.NOAA.NDBC:WWEF1:1,2016-09-09T04:00:00Z,25.2320,-80.9380,1.5,14.4,1111122 
ENP,ioos.station.NOAA.NDBC:WWEF1:1,2016-09-09T06:00:00Z,25.2320,-80.9380,1.5,14.4,1111122 
ENP,ioos.station.NOAA.NDBC:WWEF1:1,2016-09-09T07:00:00Z,25.2320,-80.9380,1.5,14.33,1111122 
ENP,ioos.station.NOAA.NDBC:WWEF1:1,2016-09-09T08:00:00Z,25.2320,-80.9380,1.5,14.33,1111122 
ENP,ioos.station.NOAA.NDBC:WWEF1:1,2016-09-09T09:00:00Z,25.2320,-80.9380,1.5,14.33,1111122 
ENP,ioos.station.NOAA.NDBC:WWEF1:1,2016-09-09T10:00:00Z,25.2320,-80.9380,1.5,14.33,1111122 
ENP,ioos.station.NOAA.NDBC:WWEF1:1,2016-09-09T11:00:00Z,25.2320,-80.9380,1.5,14.27,1111122 
ENP,ioos.station.NOAA.NDBC:WWEF1:1,2016-09-09T12:00:00Z,25.2320,-80.9380,1.5,14.27,1111122 
ENP,ioos.station.NOAA.NDBC:WWEF1:1,2016-09-09T13:00:00Z,25.2320,-80.9380,1.5,14.33,1111122 
ENP,ioos.station.NOAA.NDBC:WWEF1:1,2016-09-09T14:00:00Z,25.2320,-80.9380,1.5,14.33,1111122 
ENP,ioos.station.NOAA.NDBC:WWEF1:1,2016-09-09T15:00:00Z,25.2320,-80.9380,1.5,14.4,1111122 
ENP,ioos.station.NOAA.NDBC:WWEF1:1,2016-09-09T16:00:00Z,25.2320,-80.9380,1.5,14.4,1111122 
ENP,ioos.station.NOAA.NDBC:WWEF1:1,2016-09-09T17:00:00Z,25.2320,-80.9380,1.5,14.46,1111122 
ENP,ioos.station.NOAA.NDBC:WWEF1:1,2016-09-09T18:00:00Z,25.2320,-80.9380,1.5,14.46,1111122 
ENP,ioos.station.NOAA.NDBC:WWEF1:1,2016-09-09T19:00:00Z,25.2320,-80.9380,1.5,14.53,1111122 
ENP,ioos.station.NOAA.NDBC:WWEF1:1,2016-09-09T20:00:00Z,25.2320,-80.9380,1.5,14.6,1111122 
ENP,ioos.station.NOAA.NDBC:WWEF1:1,2016-09-09T21:00:00Z,25.2320,-80.9380,1.5,14.53,1111122 
ENP,ioos.station.NOAA.NDBC:WWEF1:1,2016-09-09T22:00:00Z,25.2320,-80.9380,1.5,14.4,1111122 
ENP,ioos.station.NOAA.NDBC:WWEF1:1,2016-09-09T23:00:00Z,25.2320,-80.9380,1.5,14.33,1111122 
ENP,ioos.station.NOAA.NDBC:WWEF1:1,2016-09-10T00:00:00Z,25.2320,-80.9380,1.5,14.27,1111122 
ENP,ioos.station.NOAA.NDBC:WWEF1:1,2016-09-10T03:00:00Z,25.2320,-80.9380,1.5,13.8,1111122 
ENP,ioos.station.NOAA.NDBC:WWEF1:1,2016-09-10T06:00:00Z,25.2320,-80.9380,1.5,13.61,1111122 
ENP,ioos.station.NOAA.NDBC:WWEF1:1,2016-09-10T07:00:00Z,25.2320,-80.9380,1.5,13.54,1111122 
ENP,ioos.station.NOAA.NDBC:WWEF1:1,2016-09-10T08:00:00Z,25.2320,-80.9380,1.5,13.54,1111122 
ENP,ioos.station.NOAA.NDBC:WWEF1:1,2016-09-10T10:00:00Z,25.2320,-80.9380,1.5,13.54,1111122 
ENP,ioos.station.NOAA.NDBC:WWEF1:1,2016-09-10T11:00:00Z,25.2320,-80.9380,1.5,13.54,1111122 
ENP,ioos.station.NOAA.NDBC:WWEF1:1,2016-09-10T12:00:00Z,25.2320,-80.9380,1.5,13.54,1111122 
ENP,ioos.station.NOAA.NDBC:WWEF1:1,2016-09-10T13:00:00Z,25.2320,-80.9380,1.5,13.54,1111122 
ENP,ioos.station.NOAA.NDBC:WWEF1:1,2016-09-10T14:00:00Z,25.2320,-80.9380,1.5,13.54,1111122 
ENP,ioos.station.NOAA.NDBC:WWEF1:1,2016-09-10T15:00:00Z,25.2320,-80.9380,1.5,13.54,1111122 
ENP,ioos.station.NOAA.NDBC:WWEF1:1,2016-09-10T16:00:00Z,25.2320,-80.9380,1.5,13.54,1111122 
ENP,ioos.station.NOAA.NDBC:WWEF1:1,2016-09-10T17:00:00Z,25.2320,-80.9380,1.5,13.47,1111122 
ENP,ioos.station.NOAA.NDBC:WWEF1:1,2016-09-10T18:00:00Z,25.2320,-80.9380,1.5,13.47,1111122 
ENP,ioos.station.NOAA.NDBC:WWEF1:1,2016-09-10T19:00:00Z,25.2320,-80.9380,1.5,13.47,1111122 
ENP,ioos.station.NOAA.NDBC:WWEF1:1,2016-09-10T20:00:00Z,25.2320,-80.9380,1.5,13.47,1111122 
ENP,ioos.station.NOAA.NDBC:WWEF1:1,2016-09-10T21:00:00Z,25.2320,-80.9380,1.5,13.47,1111122 
ENP,ioos.station.NOAA.NDBC:WWEF1:1,2016-09-10T22:00:00Z,25.2320,-80.9380,1.5,13.47,1111122 
ENP,ioos.station.NOAA.NDBC:WWEF1:1,2016-09-10T23:00:00Z,25.2320,-80.9380,1.5,13.47,1111122 
ENP,ioos.station.NOAA.NDBC:WWEF1:1,2016-09-11T00:00:00Z,25.2320,-80.9380,1.5,13.47,1111122 
ENP,ioos.station.NOAA.NDBC:WWEF1:1,2016-09-11T03:00:00Z,25.2320,-80.9380,1.5,13.41,1111122 
ENP,ioos.station.NOAA.NDBC:WWEF1:1,2016-09-11T04:00:00Z,25.2320,-80.9380,1.5,13.34,1111122 
ENP,ioos.station.NOAA.NDBC:WWEF1:1,2016-09-11T06:00:00Z,25.2320,-80.9380,1.5,13.34,1111122 
ENP,ioos.station.NOAA.NDBC:WWEF1:1,2016-09-11T07:00:00Z,25.2320,-80.9380,1.5,13.34,1111122 
ENP,ioos.station.NOAA.NDBC:WWEF1:1,2016-09-11T08:00:00Z,25.2320,-80.9380,1.5,13.34,1111122 
ENP,ioos.station.NOAA.NDBC:WWEF1:1,2016-09-11T10:00:00Z,25.2320,-80.9380,1.5,13.34,1111122 
ENP,ioos.station.NOAA.NDBC:WWEF1:1,2016-09-11T11:00:00Z,25.2320,-80.9380,1.5,13.34,1111122 
ENP,ioos.station.NOAA.NDBC:WWEF1:1,2016-09-11T12:00:00Z,25.2320,-80.9380,1.5,13.34,1111122 
ENP,ioos.station.NOAA.NDBC:WWEF1:1,2016-09-11T13:00:00Z,25.2320,-80.9380,1.5,13.34,1111122 
ENP,ioos.station.NOAA.NDBC:WWEF1:1,2016-09-11T14:00:00Z,25.2320,-80.9380,1.5,13.41,1111122 
ENP,ioos.station.NOAA.NDBC:WWEF1:1,2016-09-11T15:00:00Z,25.2320,-80.9380,1.5,13.41,1111122 
ENP,ioos.station.NOAA.NDBC:WWEF1:1,2016-09-11T16:00:00Z,25.2320,-80.9380,1.5,13.41,1111122 
ENP,ioos.station.NOAA.NDBC:WWEF1:1,2016-09-11T17:00:00Z,25.2320,-80.9380,1.5,13.41,1111122 
ENP,ioos.station.NOAA.NDBC:WWEF1:1,2016-09-11T18:00:00Z,25.2320,-80.9380,1.5,13.41,1111122 
ENP,ioos.station.NOAA.NDBC:WWEF1:1,2016-09-11T19:00:00Z,25.2320,-80.9380,1.5,13.41,1111122 
ENP,ioos.station.NOAA.NDBC:WWEF1:1,2016-09-11T20:00:00Z,25.2320,-80.9380,1.5,13.41,1111122 
ENP,ioos.station.NOAA.NDBC:WWEF1:1,2016-09-11T21:00:00Z,25.2320,-80.9380,1.5,13.41,1111122 
ENP,ioos.station.NOAA.NDBC:WWEF1:1,2016-09-11T22:00:00Z,25.2320,-80.9380,1.5,13.41,1111122 
ENP,ioos.station.NOAA.NDBC:WWEF1:1,2016-09-11T23:00:00Z,25.2320,-80.9380,1.5,13.41,1111122 
ENP,ioos.station.NOAA.NDBC:WWEF1:1,2016-09-12T00:00:00Z,25.2320,-80.9380,1.5,13.41,1111122 
ENP,ioos.station.NOAA.NDBC:WWEF1:1,2016-09-12T01:00:00Z,25.2320,-80.9380,1.5,13.41,1111122 
ENP,ioos.station.NOAA.NDBC:WWEF1:1,2016-09-12T03:00:00Z,25.2320,-80.9380,1.5,13.47,1111122 
ENP,ioos.station.NOAA.NDBC:WWEF1:1,2016-09-12T05:00:00Z,25.2320,-80.9380,1.5,13.41,1111122 
ENP,ioos.station.NOAA.NDBC:WWEF1:1,2016-09-12T06:00:00Z,25.2320,-80.9380,1.5,13.47,1111122 
ENP,ioos.station.NOAA.NDBC:WWEF1:1,2016-09-12T07:00:00Z,25.2320,-80.9380,1.5,13.47,1111122 
ENP,ioos.station.NOAA.NDBC:WWEF1:1,2016-09-12T08:00:00Z,25.2320,-80.9380,1.5,13.47,1111122 
ENP,ioos.station.NOAA.NDBC:WWEF1:1,2016-09-12T10:00:00Z,25.2320,-80.9380,1.5,13.47,1111122 
ENP,ioos.station.NOAA.NDBC:WWEF1:1,2016-09-12T11:00:00Z,25.2320,-80.9380,1.5,13.47,1111122 
ENP,ioos.station.NOAA.NDBC:WWEF1:1,2016-09-12T12:00:00Z,25.2320,-80.9380,1.5,13.47,1111122 
ENP,ioos.station.NOAA.NDBC:WWEF1:1,2016-09-12T13:00:00Z,25.2320,-80.9380,1.5,13.47,1111122 
ENP,ioos.station.NOAA.NDBC:WWEF1:1,2016-09-12T14:00:00Z,25.2320,-80.9380,1.5,13.47,1111122 
ENP,ioos.station.NOAA.NDBC:WWEF1:1,2016-09-12T15:00:00Z,25.2320,-80.9380,1.5,13.47,1111122 
ENP,ioos.station.NOAA.NDBC:WWEF1:1,2016-09-12T16:00:00Z,25.2320,-80.9380,1.5,13.47,1111122 
ENP,ioos.station.NOAA.NDBC:WWEF1:1,2016-09-12T17:00:00Z,25.2320,-80.9380,1.5,13.47,1111122 
ENP,ioos.station.NOAA.NDBC:WWEF1:1,2016-09-12T18:00:00Z,25.2320,-80.9380,1.5,13.47,1111122 
ENP,ioos.station.NOAA.NDBC:WWEF1:1,2016-09-12T19:00:00Z,25.2320,-80.9380,1.5,13.47,1111122 
ENP,ioos.station.NOAA.NDBC:WWEF1:1,2016-09-12T20:00:00Z,25.2320,-80.9380,1.5,13.41,1111122 
ENP,ioos.station.NOAA.NDBC:WWEF1:1,2016-09-12T21:00:00Z,25.2320,-80.9380,1.5,12.69,1111122 
ENP,ioos.station.NOAA.NDBC:WWEF1:1,2016-09-12T22:00:00Z,25.2320,-80.9380,1.5,12.49,1111122 
ENP,ioos.station.NOAA.NDBC:WWEF1:1,2016-09-12T23:00:00Z,25.2320,-80.9380,1.5,12.49,1111122 
ENP,ioos.station.NOAA.NDBC:WWEF1:1,2016-09-13T00:00:00Z,25.2320,-80.9380,1.5,12.56,1111122 
ENP,ioos.station.NOAA.NDBC:WWEF1:1,2016-09-13T01:00:00Z,25.2320,-80.9380,1.5,12.56,1111122 
ENP,ioos.station.NOAA.NDBC:WWEF1:1,2016-09-13T03:00:00Z,25.2320,-80.9380,1.5,12.56,1111122 
ENP,ioos.station.NOAA.NDBC:WWEF1:1,2016-09-13T04:00:00Z,25.2320,-80.9380,1.5,12.56,1111122 
ENP,ioos.station.NOAA.NDBC:WWEF1:1,2016-09-13T06:00:00Z,25.2320,-80.9380,1.5,12.56,1111122 
ENP,ioos.station.NOAA.NDBC:WWEF1:1,2016-09-13T07:00:00Z,25.2320,-80.9380,1.5,12.43,1111122 
ENP,ioos.station.NOAA.NDBC:WWEF1:1,2016-09-13T08:00:00Z,25.2320,-80.9380,1.5,12.36,1111122 
ENP,ioos.station.NOAA.NDBC:WWEF1:1,2016-09-13T09:00:00Z,25.2320,-80.9380,1.5,12.36,1111122 
ENP,ioos.station.NOAA.NDBC:WWEF1:1,2016-09-13T10:00:00Z,25.2320,-80.9380,1.5,12.36,1111122 
ENP,ioos.station.NOAA.NDBC:WWEF1:1,2016-09-13T11:00:00Z,25.2320,-80.9380,1.5,12.36,1111122 
ENP,ioos.station.NOAA.NDBC:WWEF1:1,2016-09-13T12:00:00Z,25.2320,-80.9380,1.5,12.3,1111122 
ENP,ioos.station.NOAA.NDBC:WWEF1:1,2016-09-13T13:00:00Z,25.2320,-80.9380,1.5,12.3,1111122 
ENP,ioos.station.NOAA.NDBC:WWEF1:1,2016-09-13T14:00:00Z,25.2320,-80.9380,1.5,12.3,1111122 
ENP,ioos.station.NOAA.NDBC:WWEF1:1,2016-09-13T15:00:00Z,25.2320,-80.9380,1.5,12.3,1111122 
ENP,ioos.station.NOAA.NDBC:WWEF1:1,2016-09-13T16:00:00Z,25.2320,-80.9380,1.5,12.23,1111122 
ENP,ioos.station.NOAA.NDBC:WWEF1:1,2016-09-13T17:00:00Z,25.2320,-80.9380,1.5,12.3,1111122 
ENP,ioos.station.NOAA.NDBC:WWEF1:1,2016-09-13T18:00:00Z,25.2320,-80.9380,1.5,12.3,1111122 
ENP,ioos.station.NOAA.NDBC:WWEF1:1,2016-09-13T19:00:00Z,25.2320,-80.9380,1.5,12.3,1111122 
ENP,ioos.station.NOAA.NDBC:WWEF1:1,2016-09-13T20:00:00Z,25.2320,-80.9380,1.5,12.3,1111122 
ENP,ioos.station.NOAA.NDBC:WWEF1:1,2016-09-13T21:00:00Z,25.2320,-80.9380,1.5,12.3,1111122 
ENP,ioos.station.NOAA.NDBC:WWEF1:1,2016-09-13T22:00:00Z,25.2320,-80.9380,1.5,12.3,1111122 
ENP,ioos.station.NOAA.NDBC:WWEF1:1,2016-09-13T23:00:00Z,25.2320,-80.9380,1.5,12.3,1111122 
ENP,ioos.station.NOAA.NDBC:WWEF1:1,2016-09-14T00:00:00Z,25.2320,-80.9380,1.5,12.3,1111122 
ENP,ioos.station.NOAA.NDBC:WWEF1:1,2016-09-14T01:00:00Z,25.2320,-80.9380,1.5,12.3,1111122 
ENP,ioos.station.NOAA.NDBC:WWEF1:1,2016-09-14T03:00:00Z,25.2320,-80.9380,1.5,12.3,1111122 
ENP,ioos.station.NOAA.NDBC:WWEF1:1,2016-09-14T04:00:00Z,25.2320,-80.9380,1.5,12.36,1111122 
ENP,ioos.station.NOAA.NDBC:WWEF1:1,2016-09-14T06:00:00Z,25.2320,-80.9380,1.5,12.36,1111122 
ENP,ioos.station.NOAA.NDBC:WWEF1:1,2016-09-14T07:00:00Z,25.2320,-80.9380,1.5,12.43,1111122 
ENP,ioos.station.NOAA.NDBC:WWEF1:1,2016-09-14T08:00:00Z,25.2320,-80.9380,1.5,12.43,1111122 
ENP,ioos.station.NOAA.NDBC:WWEF1:1,2016-09-14T10:00:00Z,25.2320,-80.9380,1.5,12.56,1111122 